This is the latest recevied weather packets stored in our database for station/object KJ4EWA. If no packets are shown the sender has not sent any weather packets the latest 10 day(s).
| Time | Temp. | Humidity | Pressure | Rain* | Wind** | Luminosity | Snow |
|---|---|---|---|---|---|---|---|
| 1777933332 | 24.44° C | 49% | 1018.4 hPa | 0 mm | - | 236 W/m² | - |
| 1777933029 | 23.89° C | 50% | 1018.3 hPa | 0 mm | - | 209 W/m² | - |
| 1777932726 | 23.89° C | 49% | 1018.4 hPa | 0 mm | - | 212 W/m² | - |
| 1777932423 | 24.44° C | 49% | 1018.6 hPa | 0 mm | - | 295 W/m² | - |
| 1777932121 | 25° C | 49% | 1018.5 hPa | 0 mm | - | 291 W/m² | - |
| 1777931816 | 24.44° C | 49% | 1018.4 hPa | 0 mm | - | 239 W/m² | - |
| 1777931514 | 24.44° C | 49% | 1018.5 hPa | 0 mm | - | 296 W/m² | - |
| 1777931209 | 24.44° C | 47% | 1018.4 hPa | 0 mm | - | 338 W/m² | - |
| 1777930906 | 25° C | 48% | 1018.2 hPa | 0 mm | - | 347 W/m² | - |
| 1777930603 | 24.44° C | 48% | 1018.5 hPa | 0 mm | - | 338 W/m² | - |
| 1777930300 | 25° C | 47% | 1018.2 hPa | 0 mm | - | 361 W/m² | - |
| 1777929996 | 24.44° C | 48% | 1018.3 hPa | 0 mm | - | 396 W/m² | - |
| 1777929693 | 25° C | 48% | 1018.3 hPa | 0 mm | - | 409 W/m² | - |
| 1777929391 | 25° C | 48% | 1018.6 hPa | 0 mm | - | 401 W/m² | - |
| 1777929086 | 25° C | 46% | 1018.7 hPa | 0 mm | - | 437 W/m² | - |
| 1777928785 | 25° C | 49% | 1018.3 hPa | 0 mm | - | 440 W/m² | - |
| 1777928480 | 25° C | 47% | 1018.3 hPa | 0 mm | - | 412 W/m² | - |
| 1777928178 | 25° C | 47% | 1018.4 hPa | 0 mm | - | 443 W/m² | - |
| 1777927876 | 25° C | 48% | 1018.3 hPa | 0 mm | - | 484 W/m² | - |
| 1777927574 | 25° C | 47% | 1018.3 hPa | 0 mm | - | 491 W/m² | - |
| 1777927273 | 25.56° C | 46% | 1018.5 hPa | 0 mm | - | 542 W/m² | - |
| 1777926971 | 25.56° C | 47% | 1018.2 hPa | 0 mm | - | 552 W/m² | - |
| 1777926668 | 25.56° C | 46% | 1018.3 hPa | 0 mm | - | 524 W/m² | - |
| 1777926363 | 25.56° C | 46% | 1018.4 hPa | 0 mm | - | 574 W/m² | - |
| 1777926060 | 26.11° C | 44% | 1018.7 hPa | 0 mm | - | 603 W/m² | - |
* Rain latest hour (hover to see other rain measurements)
** Current wind speed in m/s (hover to see current wind gust speed)